Theta_e
307 307 307 307 307 308 309 309 310 310 310 311 311 312 311 311 312 310 310 313 311 314 316 307 306 309 305 302 302 303 303 302 302 303 303 303 304 305 306 306 307 308 307 308 309 308 310 310 307 308 309 306 304 301 298 300 301 302 304 304 301 302 305 308 313 313 310 307 301 298 299 301 305 307 306 309 312 314 316 314 313 312 311 311 310 312 317
307 307 307 307 307 308 308 309 309 310 310 311 311 312 311 310 310 310 311 313 312 317 319 316 313 308 303 303 304 303 302 302 304 305 304 304 304 307 310 307 305 304 304 308 308 305 307 308 305 306 308 305 300 298 299 299 300 301 303 303 301 304 307 308 311 313 314 314 312 308 305 305 308 310 308 308 309 310 310 308 307 310 312 312 313 316 316
306 307 307 307 307 308 308 309 309 309 310 310 310 311 310 311 311 309 309 311 312 312 311 313 315 312 309 308 306 305 303 302 304 304 303 302 302 305 308 305 304 304 304 308 308 304 305 306 305 304 306 304 300 298 298 298 299 300 300 299 300 304 308 307 309 312 312 312 314 313 310 309 310 310 307 306 308 308 309 308 308 311 311 309 313 317 313
307 307 307 307 307 307 308 308 308 309 310 309 310 311 309 311 313 312 312 311 309 307 305 306 310 313 314 310 306 307 308 304 302 303 303 302 302 304 304 302 305 306 307 312 314 309 306 304 305 307 308 307 301 297 298 298 298 299 298 298 301 305 307 307 310 315 313 311 312 309 307 307 308 308 307 307 307 306 308 311 311 312 311 309 311 313 310
307 307 307 307 307 307 307 308 308 309 309 308 310 310 309 310 309 309 313 312 309 309 306 305 307 308 311 309 305 308 311 305 302 303 304 303 302 304 304 303 306 309 309 313 315 312 308 306 306 307 308 306 299 296 297 297 297 298 297 298 301 306 309 307 308 311 311 310 310 306 304 305 305 306 307 309 308 305 307 309 311 311 310 310 312 312 310
306 307 307 307 307 307 307 307 307 308 308 308 310 309 309 310 306 305 309 309 310 311 308 306 305 304 307 308 306 309 313 309 307 306 303 302 303 306 307 306 308 310 308 310 312 312 310 310 309 307 306 305 302 300 298 296 297 298 297 297 299 304 308 306 306 310 310 308 308 305 303 304 304 305 305 306 306 306 306 307 308 309 308 309 311 311 309
306 306 306 307 307 307 307 307 307 307 307 308 310 309 307 308 307 305 306 307 306 307 306 305 306 305 306 308 307 311 315 310 308 305 303 305 305 304 309 311 309 306 305 308 311 313 310 308 309 308 306 306 306 306 303 299 297 297 298 297 297 302 310 308 305 308 310 307 308 305 303 306 307 306 305 305 305 306 306 305 305 306 307 307 307 307 306
306 306 306 306 307 307 307 307 307 307 308 308 309 308 306 307 308 306 307 306 304 304 305 305 308 308 307 308 307 310 315 312 307 304 305 308 308 303 308 313 308 302 304 308 310 310 308 306 306 305 305 307 309 308 306 302 298 297 300 300 296 299 309 309 304 307 310 310 311 309 306 307 307 305 305 305 304 304 304 303 303 304 306 305 304 304 305
305 306 306 306 306 307 306 307 307 306 307 308 308 307 306 307 308 307 309 308 305 305 305 304 309 313 311 310 307 308 313 311 306 305 304 306 308 305 306 310 306 302 306 311 310 307 305 305 304 303 303 306 306 304 302 302 303 302 301 300 299 299 305 309 305 306 311 312 312 312 307 305 305 308 312 311 309 311 310 305 303 305 308 307 305 306 308
304 305 305 305 306 307 306 306 306 306 307 307 307 307 306 307 307 307 310 311 305 304 304 305 310 313 309 307 306 306 309 307 304 306 306 304 304 305 304 306 307 307 310 311 309 306 304 303 303 302 301 301 301 300 300 300 304 306 302 300 300 300 304 307 305 307 315 313 309 308 306 306 310 317 323 320 315 316 315 309 306 306 307 309 310 310 309
303 303 304 305 305 306 306 306 306 305 306 306 306 306 306 306 307 306 309 313 307 302 305 309 311 309 305 304 305 304 304 305 305 306 307 305 303 304 305 304 306 311 311 307 304 303 302 302 301 300 300 300 299 299 300 299 299 301 302 302 301 300 302 304 303 308 317 314 308 306 306 307 313 319 321 317 311 312 313 313 312 308 305 308 311 309 307
304 303 303 304 305 305 305 306 305 305 305 305 305 306 305 306 307 305 308 313 308 303 306 308 306 305 304 303 305 304 303 304 305 304 305 306 304 304 304 303 304 308 306 303 302 301 301 302 301 299 299 300 300 299 299 299 298 298 299 301 304 304 303 303 303 306 311 311 309 309 309 312 314 312 310 307 305 307 310 311 312 309 306 308 309 307 306
310 307 304 303 303 304 305 305 305 304 304 304 304 306 305 305 306 305 306 310 310 305 306 305 302 302 303 302 303 305 304 304 304 304 303 304 303 303 303 302 303 305 303 302 302 301 302 304 303 302 300 298 299 300 300 299 298 297 297 298 302 306 305 304 305 306 308 309 307 307 309 311 309 307 306 305 306 308 309 310 312 311 309 309 309 307 305
314 312 310 307 304 303 303 304 305 304 303 303 304 304 305 305 305 305 305 307 308 304 303 306 305 303 302 303 303 303 302 301 302 303 302 303 304 303 303 303 303 302 302 302 300 301 305 310 312 312 309 305 304 304 303 299 296 296 297 295 297 303 305 304 305 305 305 307 309 309 308 309 312 313 310 307 309 311 310 311 311 309 308 307 308 309 305
317 315 315 313 310 307 304 303 304 304 304 303 303 303 304 304 304 305 304 305 307 305 304 305 307 304 303 304 303 302 303 302 302 302 301 302 303 303 303 303 301 301 301 300 301 303 306 308 310 312 313 312 308 305 306 304 298 295 296 296 296 297 301 302 303 306 306 305 308 312 310 310 318 319 310 307 308 307 306 309 311 308 306 306 307 307 304
317 317 316 316 315 313 310 306 303 303 304 304 303 302 303 303 303 304 303 304 307 307 305 304 304 305 304 303 303 303 304 304 303 303 304 303 302 302 303 301 300 301 301 300 302 306 307 307 308 309 311 310 306 305 306 307 305 298 294 296 296 296 299 302 302 306 307 305 307 311 310 310 318 317 308 306 307 306 304 308 312 310 307 306 306 304 303
317 317 317 316 316 316 315 313 309 305 303 303 303 303 303 302 303 303 303 303 304 305 306 305 304 304 304 305 305 304 304 304 303 304 308 307 304 302 301 301 300 300 300 301 304 307 309 310 308 309 313 310 304 305 307 306 308 305 299 298 299 299 301 303 303 306 308 306 309 312 309 309 313 311 305 305 307 306 307 309 312 311 307 306 307 305 305
317 317 316 316 316 316 316 316 314 311 308 304 303 303 303 302 302 302 302 302 302 303 305 304 304 304 304 306 306 304 304 305 304 304 306 305 303 303 302 300 300 300 300 303 307 309 310 312 309 310 313 308 302 305 308 306 308 309 305 305 304 303 302 301 303 307 306 304 307 309 309 311 310 306 304 305 306 307 309 311 310 308 305 305 306 305 305
315 316 316 316 316 316 316 316 316 315 313 309 306 303 303 303 303 302 302 302 301 303 303 302 302 304 304 304 305 305 305 304 304 306 307 306 305 303 301 300 301 301 300 302 306 308 309 311 309 307 309 309 305 305 307 307 308 307 306 306 307 307 305 302 303 306 305 303 306 308 309 310 307 304 305 305 305 309 312 310 308 305 305 305 305 304 304
310 312 314 315 316 316 315 316 316 316 315 314 311 308 304 303 303 302 302 302 301 301 302 302 302 303 304 304 304 304 305 304 304 306 308 307 305 303 304 306 305 302 301 303 307 307 307 312 311 305 308 313 309 305 307 310 311 308 306 307 308 309 310 310 308 306 305 304 305 308 313 311 305 305 307 305 306 312 310 306 306 306 305 305 304 304 304
307 308 310 312 313 315 315 315 315 316 316 316 315 313 309 307 304 302 302 302 301 301 302 302 303 303 302 302 302 302 303 304 304 305 305 306 305 305 308 311 307 304 304 305 308 306 304 310 311 306 307 309 306 305 309 313 313 307 302 304 308 307 309 314 312 307 306 309 310 312 314 312 305 305 308 307 307 309 306 305 306 305 305 305 304 304 305
306 306 306 308 309 311 312 314 314 315 315 315 316 315 314 312 309 306 304 302 302 302 302 302 302 302 301 301 301 302 302 302 303 304 304 305 304 305 306 306 304 305 304 304 307 307 304 307 309 309 310 308 305 308 309 307 311 310 302 302 309 310 309 311 310 307 306 310 312 310 307 306 304 305 306 306 306 306 305 305 304 304 305 305 304 305 306
305 305 305 305 306 306 308 310 311 313 314 315 315 315 315 315 314 312 310 307 304 303 302 302 303 303 303 302 302 302 302 302 302 303 303 304 304 304 305 304 304 305 304 303 306 307 306 306 307 308 312 309 306 308 307 303 309 313 306 304 308 307 303 303 307 308 306 305 306 305 304 305 306 305 305 306 305 305 305 305 304 304 305 305 305 305 306
305 305 305 305 305 305 306 306 308 310 312 313 314 314 314 315 315 315 315 311 306 303 303 303 303 303 303 303 303 303 303 302 302 302 302 303 303 303 304 303 303 304 304 304 305 304 303 304 302 302 306 306 304 307 308 306 308 309 307 308 310 305 301 302 305 307 306 305 305 304 303 305 306 305 305 305 305 305 305 304 305 305 305 305 305 305 306
304 304 304 304 305 305 305 306 307 309 310 311 312 312 313 314 314 315 314 312 307 305 302 302 304 304 303 302 302 302 302 302 302 302 302 302 302 302 303 303 302 303 303 303 304 304 303 303 302 303 306 306 304 307 308 307 306 304 305 312 314 307 303 305 307 305 305 306 305 303 303 305 305 304 305 304 304 305 305 304 305 304 304 305 305 305 305
304 304 304 304 304 304 304 306 308 309 310 311 311 311 312 312 312 312 311 310 310 307 301 300 302 303 302 302 303 303 303 302 302 302 302 302 302 302 302 302 302 302 303 303 303 303 302 301 302 305 307 305 303 305 308 306 303 302 304 309 309 305 303 305 307 305 304 304 303 303 304 304 304 304 305 304 304 304 304 304 304 304 304 305 305 305 305
303 304 304 304 304 304 304 305 306 308 309 310 310 310 310 311 311 310 309 309 310 308 303 302 305 306 306 307 306 304 303 302 302 302 302 302 302 302 302 302 302 301 301 302 302 302 301 301 302 303 304 303 302 303 304 302 301 303 306 305 302 303 304 304 304 306 306 305 304 304 304 304 304 305 305 304 304 304 303 304 304 304 305 305 305 305 305
303 303 303 303 303 303 303 303 304 306 307 308 309 309 309 311 310 308 307 309 311 309 307 307 309 311 310 308 307 305 306 306 306 305 304 302 302 301 301 301 302 301 301 301 301 301 300 301 302 302 301 301 303 303 301 300 301 305 306 303 302 303 304 303 305 308 308 305 304 304 303 303 303 304 304 304 304 303 304 304 304 304 304 304 304 304 304
303 302 302 303 303 303 303 303 304 305 306 307 309 308 308 310 310 308 308 310 311 310 309 309 310 310 309 308 308 309 309 307 306 304 303 302 302 301 300 300 301 301 301 301 300 300 300 300 302 302 301 301 303 304 303 304 306 306 304 302 303 303 303 303 304 305 304 304 305 305 303 302 303 304 304 304 304 304 304 304 303 303 303 303 303 304 303
301 301 301 301 302 303 303 303 303 303 304 305 306 307 308 310 309 309 309 310 310 310 309 308 308 309 309 309 309 307 305 304 304 303 302 302 301 301 300 300 301 301 301 301 300 300 300 300 300 301 302 301 302 304 306 309 310 307 303 302 304 304 303 304 304 303 303 304 304 303 303 303 303 303 304 304 304 303 303 303 303 303 303 303 303 303 303
298 298 299 299 300 302 303 303 303 303 303 303 304 306 308 309 308 308 309 309 309 310 308 305 306 308 308 306 305 303 303 305 306 304 303 303 301 301 301 301 301 301 301 300 300 300 300 300 301 301 302 302 302 303 307 308 307 306 304 303 304 303 303 304 304 303 303 303 303 303 303 303 303 303 303 303 303 302 302 302 303 302 303 303 303 303 303
294 295 297 298 299 300 302 303 303 302 303 303 303 304 306 307 307 307 308 308 308 308 307 305 305 306 305 304 303 304 305 306 306 305 305 304 303 302 302 301 301 301 301 300 300 300 300 301 301 300 301 302 301 302 304 305 304 304 304 303 303 303 303 303 303 303 302 302 302 302 302 303 303 303 302 302 302 302 302 302 303 302 303 303 303 303 303
294 294 295 296 297 299 300 302 302 302 302 302 302 303 305 305 306 306 306 307 307 307 306 304 302 302 302 303 304 305 305 305 305 305 305 305 304 303 302 301 301 301 301 301 301 301 301 301 300 300 301 301 300 301 304 305 302 302 303 303 303 303 302 303 303 303 302 302 302 302 302 303 303 302 302 303 303 303 303 303 303 303 303 304 304 304 303
293 293 294 295 295 296 298 299 300 301 301 301 302 303 303 303 304 304 304 304 305 305 305 303 300 299 302 304 304 304 305 305 305 304 304 304 304 303 302 302 301 300 301 302 301 301 301 301 300 302 302 300 299 301 304 303 302 302 303 303 303 304 303 303 303 303 302 302 303 302 302 303 302 303 304 304 304 304 304 303 303 303 303 303 304 304 304
294 293 293 293 294 294 295 296 297 298 300 301 302 302 302 302 302 302 302 302 303 304 305 304 300 300 302 305 305 305 305 305 304 304 303 303 304 303 302 301 301 302 303 302 300 300 300 301 302 303 302 300 301 303 303 302 302 303 303 303 304 304 303 303 303 303 302 302 303 303 303 303 303 304 303 303 303 303 303 303 303 303 303 303 303 303 303
294 294 293 293 293 294 294 295 297 298 300 301 301 301 300 300 300 300 300 301 302 303 304 304 301 300 301 303 304 304 304 304 304 303 303 303 303 302 302 301 302 303 303 301 299 300 301 301 303 304 303 302 304 304 302 302 303 303 304 305 306 304 303 302 303 303 303 303 303 303 303 303 303 302 302 302 302 302 302 302 302 302 302 302 303 303 303
294 294 294 293 293 294 295 296 298 299 300 300 300 299 299 299 300 301 302 302 303 303 303 303 303 302 302 302 303 303 304 304 304 303 303 303 303 302 301 302 303 304 303 303 303 303 302 301 302 305 305 304 304 304 303 303 305 305 305 306 305 304 303 303 303 302 303 303 303 303 303 303 302 302 302 301 301 301 301 301 301 301 301 301 302 302 303
294 294 294 294 294 295 297 298 298 298 298 299 299 299 300 301 302 303 304 304 304 303 302 302 303 304 304 303 304 304 304 303 302 302 303 303 303 302 301 302 303 303 305 306 306 304 303 302 302 304 305 303 302 304 305 305 305 305 305 305 304 303 303 303 302 303 303 303 303 303 302 302 302 301 301 301 301 301 300 300 300 300 300 300 300 301 302
294 294 294 294 295 296 297 297 297 297 297 297 298 299 301 302 303 304 304 303 303 303 302 302 303 303 303 303 303 304 304 302 301 303 303 303 304 304 303 303 303 303 304 306 305 303 304 305 305 306 306 304 302 304 305 304 304 304 303 303 302 302 302 303 303 303 303 303 302 302 302 301 301 301 301 301 301 300 300 300 300 299 299 299 300 300 300
294 294 294 295 296 296 296 296 296 296 297 298 300 301 301 302 303 303 303 304 305 303 302 303 303 303 303 302 301 302 302 302 302 302 301 301 303 302 301 303 303 302 304 306 304 302 304 306 306 307 307 304 303 304 304 303 303 303 302 303 303 303 303 303 303 303 303 302 302 302 301 301 301 301 301 301 300 300 300 300 299 299 299 299 299 299 299
295 295 295 296 295 295 295 295 295 297 299 300 301 302 301 302 303 302 301 304 306 304 302 302 303 302 301 301 300 301 301 301 301 300 299 301 302 301 300 302 302 301 303 305 302 300 302 305 307 308 306 303 302 304 304 303 303 303 302 303 303 302 303 303 303 302 302 302 302 301 301 301 301 301 301 300 300 299 299 299 299 299 299 299 299 299 299
296 296 296 296 295 295 296 297 297 299 300 300 300 300 300 301 303 303 302 303 304 303 302 302 301 301 301 301 300 300 301 301 300 299 299 300 301 300 301 302 301 301 303 303 300 299 302 305 307 308 306 302 302 304 303 302 303 303 302 303 303 302 302 302 302 302 302 301 301 301 300 300 300 300 300 299 299 298 298 299 299 299 299 299 299 299 299
296 296 296 296 296 297 297 298 299 300 300 299 301 302 301 301 303 304 303 302 302 302 302 302 301 301 301 301 301 301 301 300 300 299 299 300 301 300 300 302 302 302 302 300 299 301 304 305 306 306 305 302 302 302 302 302 302 302 302 302 302 301 301 301 301 301 301 301 300 300 299 299 299 299 299 298 298 298 298 298 298 298 298 298 299 299 299
295 296 296 296 296 297 298 298 299 301 301 300 302 304 304 304 305 305 304 303 302 301 301 301 301 300 301 301 301 301 300 300 300 299 299 300 301 301 301 303 303 301 299 300 301 303 304 304 303 303 302 302 302 302 302 302 302 302 302 302 301 301 301 301 300 301 300 300 300 299 298 298 298 298 297 298 298 298 298 297 297 298 298 298 298 299 298
295 295 296 296 296 297 297 298 299 301 302 302 301 302 302 303 303 304 303 303 301 300 301 301 300 300 300 300 300 301 300 300 300 300 299 300 302 302 302 303 301 299 299 303 304 303 302 302 302 302 301 302 302 302 302 302 302 301 301 301 301 301 301 300 300 300 300 299 299 298 298 297 297 297 297 297 297 297 298 298 298 299 299 299 298 298 298
295 295 296 297 297 297 297 298 299 300 301 301 300 300 300 300 300 301 302 301 301 301 301 301 300 300 300 300 300 301 300 300 300 299 299 300 301 302 301 300 300 300 302 304 303 302 302 303 303 302 301 302 302 301 302 301 301 301 301 300 300 300 300 300 300 300 299 299 298 298 297 297 298 298 298 298 298 298 298 299 299 299 299 299 299 298 298
295 295 297 297 297 297 297 298 298 299 299 300 300 301 300 299 299 300 301 301 300 300 300 300 300 299 299 299 300 300 300 300 300 300 300 300 301 301 300 300 300 302 303 302 301 301 302 302 301 301 301 301 301 301 301 301 300 300 300 300 300 300 299 299 299 299 298 298 298 297 298 298 298 298 298 298 298 298 298 299 299 299 299 299 298 298 298
295 296 296 297 297 297 297 297 297 297 298 299 299 299 298 298 298 299 299 299 299 299 299 299 299 299 299 299 299 299 299 300 300 300 300 300 300 301 302 302 302 302 302 301 301 302 302 301 301 301 301 301 300 300 300 300 300 300 299 299 299 299 299 299 298 298 298 298 298 298 298 298 298 298 298 298 298 298 298 298 299 299 298 298 298 298 298
295 295 295 296 296 297 297 297 297 297 297 297 297 298 298 298 298 298 298 298 298 298 298 298 298 299 299 299 298 298 299 300 299 299 300 300 300 300 301 301 301 301 301 301 301 301 301 300 300 300 300 300 300 300 299 299 299 299 299 299 299 298 298 298 298 297 297 298 298 298 298 298 298 298 298 298 298 298 298 298 298 298 298 298 298 298 298
294 295 295 295 295 295 296 296 296 296 295 296 296 296 297 297 297 297 297 298 298 297 296 296 297 298 299 298 298 299 299 300 300 301 300 300 300 301 300 300 300 300 299 299 299 299 299 300 299 299 299 299 299 299 299 299 299 299 299 298 298 298 298 297 297 297 297 297 297 298 298 298 298 298 298 298 298 298 298 298 298 297 297 297 297 297 297
294 295 295 295 295 295 295 296 296 295 295 295 295 296 296 296 296 296 296 296 296 295 295 295 296 297 297 297 298 298 298 299 300 300 299 299 300 300 300 299 299 299 299 298 298 299 299 299 299 299 299 299 299 299 299 298 298 298 298 298 297 297 297 297 297 297 297 297 297 298 297 297 298 297 297 297 297 297 297 297 297 297 297 297 297 297 297
293 294 294 294 294 294 294 295 295 295 295 295 295 295 295 295 295 295 295 295 295 295 295 296 296 296 296 296 297 297 298 298 299 298 298 298 299 299 299 299 299 299 298 298 298 299 298 298 298 298 298 298 298 298 298 298 298 297 297 297 297 297 297 297 297 297 297 297 297 297 297 297 297 297 297 297 297 297 297 297 297 297 297 297 297 297 297
Wind_Speed
25 27 29 30 31 30 28 25 22 18 15 12 10 12 16 16 11 13 12 6 5 8 7 7 6 4 3 3 4 3 2 2 2 1 1 1 1 1 1 1 1 2 2 1 2 2 1 2 2 2 3 2 1 3 3 2 2 3 1 0 1 1 2 1 5 5 4 6 4 1 1 1 1 2 1 4 3 3 5 5 3 1 2 2 3 3 8
24 26 27 29 30 30 29 27 24 21 18 15 12 11 14 15 17 20 17 6 4 6 4 2 2 2 2 4 4 2 2 2 1 1 1 1 1 1 1 1 1 2 2 2 2 2 1 1 1 1 2 2 1 3 3 3 3 2 1 2 2 1 0 1 3 6 7 7 6 5 4 1 2 3 1 3 4 6 3 2 3 1 4 5 4 5 9
22 24 26 28 29 30 29 28 26 23 20 18 14 10 9 8 11 19 22 14 11 9 6 6 5 1 2 4 3 2 3 3 2 1 1 1 1 1 1 1 2 2 2 2 1 1 0 1 1 1 1 2 1 3 3 3 2 2 2 3 3 2 2 2 2 2 3 5 5 5 4 2 2 1 1 2 5 7 4 2 3 2 4 5 5 6 10
21 22 25 27 28 29 30 29 27 25 22 21 16 11 9 6 4 10 17 20 22 19 12 9 7 4 3 3 2 2 2 1 2 1 1 1 1 1 1 2 2 2 2 1 1 1 0 1 1 0 2 3 1 2 3 3 2 2 2 3 2 1 1 3 5 6 5 6 8 5 1 3 5 4 3 4 4 5 5 4 3 5 3 3 8 10 12
18 20 23 25 27 29 29 29 29 27 26 23 17 13 12 7 3 4 6 12 16 17 14 11 7 4 3 2 0 0 0 2 2 0 1 0 0 0 1 1 1 1 1 1 1 2 1 1 0 1 3 3 1 2 3 3 3 3 3 3 2 3 2 4 6 8 9 9 10 6 1 4 9 8 6 6 5 6 7 6 7 5 3 5 9 8 7
17 18 20 22 24 27 28 29 28 27 28 23 15 16 17 9 5 5 4 3 4 7 9 10 9 6 3 2 1 1 0 1 1 1 0 0 1 0 1 2 3 4 3 2 1 2 2 1 2 1 2 3 2 1 2 3 3 3 3 2 3 4 3 4 4 7 11 10 12 10 4 6 8 7 8 8 6 9 11 12 9 7 5 11 10 6 8
15 17 18 20 22 24 26 28 27 26 26 19 13 18 19 11 7 8 8 6 3 3 4 5 7 7 4 3 2 2 2 2 3 2 1 1 1 1 1 4 4 4 3 3 1 2 1 2 4 2 2 2 1 1 2 2 2 2 2 1 1 3 3 4 3 6 11 10 10 8 5 4 7 8 10 9 9 12 13 12 8 9 12 16 16 15 16
15 15 17 18 19 21 23 25 26 26 22 17 16 22 19 12 9 7 9 9 7 6 5 4 4 4 4 3 1 3 5 4 3 3 3 1 1 2 2 4 2 3 4 4 2 6 5 3 5 4 2 2 2 2 2 3 2 0 1 0 1 2 3 2 3 3 9 7 6 4 5 6 8 12 9 7 7 8 9 9 6 7 11 15 15 13 15
15 15 15 16 17 18 20 22 24 25 22 19 23 25 19 16 13 8 8 6 7 6 5 4 3 3 4 2 0 1 3 4 2 2 4 4 3 3 4 4 2 2 2 3 6 7 6 6 6 5 4 4 3 3 2 3 3 0 1 1 1 2 2 2 5 3 7 4 5 9 8 4 6 12 11 6 6 6 6 6 6 8 8 9 8 7 10
15 15 15 16 16 17 18 19 21 23 23 22 25 24 19 16 14 9 7 4 4 5 4 4 5 1 2 1 1 2 2 2 1 1 3 3 3 3 4 5 3 1 2 5 6 5 4 6 7 6 6 7 6 5 4 3 4 3 3 1 1 3 1 2 3 2 6 5 5 9 9 6 4 8 6 7 7 6 5 5 7 10 7 4 6 8 10
17 17 16 15 16 16 16 17 18 19 20 22 23 21 19 17 13 9 5 3 3 5 3 3 4 1 3 2 2 2 2 1 3 2 2 3 3 3 4 4 2 2 4 4 4 5 6 7 8 8 7 7 6 6 5 5 4 3 4 2 1 2 3 1 1 1 6 8 7 6 4 3 5 6 7 7 7 8 7 9 10 10 7 6 8 10 11
18 18 17 16 16 16 15 16 17 17 18 19 18 17 17 17 15 12 7 3 2 4 3 2 1 2 4 4 4 4 4 4 5 4 3 3 3 4 6 6 3 3 4 3 4 6 7 7 7 5 3 1 2 2 2 3 2 2 3 3 3 3 2 1 1 1 4 5 7 6 1 5 9 6 4 6 7 8 8 11 14 11 11 12 14 14 15
18 18 18 17 16 15 15 15 15 15 16 15 14 15 15 15 14 13 8 4 0 3 3 0 3 2 4 5 5 5 5 5 6 6 5 5 4 5 7 8 6 5 5 4 5 5 4 4 2 1 0 1 1 1 1 2 2 1 1 2 4 5 4 2 1 2 2 3 4 2 5 10 12 9 2 2 2 3 2 9 14 12 11 11 12 14 18
17 18 18 18 17 16 15 14 13 13 14 13 12 13 13 12 12 12 9 5 0 1 2 2 5 4 4 5 5 4 4 4 5 6 6 7 6 5 6 8 8 7 5 4 4 2 1 2 3 3 3 3 3 2 1 2 3 3 2 1 3 6 4 1 1 2 1 0 2 4 6 10 10 4 1 2 2 3 3 3 11 12 9 10 11 12 16
15 16 17 17 18 17 16 15 13 12 12 12 11 10 10 10 10 10 8 5 2 1 1 1 4 3 3 3 4 3 2 2 4 5 6 8 7 6 7 6 6 5 4 3 1 1 1 1 2 3 4 2 2 2 0 1 1 2 3 1 3 4 3 3 2 1 1 2 3 5 5 6 7 6 5 2 3 4 6 3 8 12 10 13 12 10 14
13 14 15 16 16 16 16 15 15 13 12 11 11 9 8 8 8 8 7 5 3 1 1 1 2 2 2 2 4 4 3 2 2 2 4 5 5 5 6 5 5 4 3 2 1 3 3 1 2 1 2 2 2 2 2 1 1 2 3 2 3 3 2 3 2 2 0 3 1 2 2 6 8 8 5 3 5 5 5 3 8 8 7 10 10 12 16
13 13 14 14 15 15 15 15 14 14 13 12 11 10 9 8 8 7 6 6 4 3 3 3 3 3 2 2 2 5 5 3 2 2 3 3 3 4 4 5 5 4 2 0 1 3 3 1 2 1 4 4 2 1 2 1 1 3 1 3 4 4 3 2 2 4 3 3 3 3 5 8 10 10 7 5 8 5 5 4 9 7 4 6 8 13 18
12 13 13 14 14 14 14 14 14 13 13 12 12 11 10 9 9 8 7 8 6 4 3 5 6 6 4 3 4 5 4 4 3 2 3 4 4 3 4 5 5 2 1 0 1 3 2 2 2 3 4 3 1 1 2 2 2 4 2 2 2 1 0 1 3 3 4 5 3 4 5 8 10 9 5 8 8 4 1 5 10 8 10 16 17 19 23
12 13 13 14 14 15 15 15 14 14 13 12 12 11 10 10 10 10 9 8 6 6 8 10 11 9 7 7 6 6 6 6 5 2 0 3 4 3 3 2 3 3 1 1 1 1 2 2 2 3 2 4 1 2 2 3 3 3 3 1 1 1 1 1 2 2 3 4 3 3 7 9 7 5 7 10 7 1 5 10 16 19 22 28 30 28 27
13 13 13 14 14 15 16 16 16 15 14 13 13 11 10 10 10 10 10 10 10 12 13 13 11 10 9 9 9 9 9 9 8 6 4 3 4 5 2 2 4 4 2 2 1 1 2 3 3 2 2 4 2 1 2 3 3 3 4 4 4 4 3 2 3 4 2 1 1 1 6 7 11 11 6 7 7 9 15 19 27 32 31 33 36 35 32
13 13 14 15 15 15 16 16 16 16 15 15 14 13 12 12 11 10 10 11 12 12 11 10 11 11 12 13 14 14 14 12 11 10 8 7 8 8 2 2 8 8 4 4 3 2 2 3 2 2 3 2 1 2 2 2 6 4 4 3 2 4 4 3 4 4 4 2 4 5 7 8 15 12 8 12 17 26 29 27 31 38 39 38 37 37 36
13 14 15 16 16 16 16 16 16 16 16 16 16 14 12 12 12 12 12 12 12 13 13 16 18 18 19 20 19 19 18 17 16 15 12 10 10 12 9 6 7 8 7 6 4 1 3 3 2 2 2 2 2 3 3 2 5 5 2 2 3 8 9 4 3 5 5 5 10 15 20 19 15 19 29 34 34 37 36 32 35 40 41 39 37 39 38
13 14 15 16 17 18 18 17 17 16 16 17 17 15 14 14 14 14 14 14 15 15 16 18 19 18 17 17 16 16 17 16 17 17 14 11 11 15 18 15 10 9 8 9 7 3 4 5 3 2 2 3 4 2 2 4 4 3 3 4 7 13 11 5 1 4 5 12 21 26 32 37 35 34 38 39 39 40 39 39 39 38 37 38 38 39 37
14 14 14 15 17 18 19 19 18 17 17 17 16 16 16 16 15 16 16 15 15 15 14 14 14 13 13 13 13 13 14 15 16 17 17 16 13 12 13 13 12 11 10 12 13 8 4 3 3 3 3 4 5 3 4 6 5 3 4 3 7 9 9 6 4 3 2 9 15 17 24 34 37 37 39 38 37 37 36 35 35 35 36 37 37 37 36
14 14 14 15 16 17 19 20 19 17 16 16 16 16 17 17 17 17 16 14 13 12 10 12 13 13 12 12 12 11 12 13 14 14 16 18 18 17 15 13 12 13 14 14 14 11 8 5 2 2 4 7 7 5 3 5 5 4 5 4 5 2 4 5 6 5 5 10 18 23 31 37 37 37 38 35 31 32 33 33 34 36 38 39 39 38 37
13 14 14 14 15 16 17 19 19 18 17 16 16 16 17 18 18 17 16 15 15 11 8 9 11 11 11 13 15 16 17 18 17 17 16 17 19 21 23 21 18 17 16 15 14 12 10 6 2 3 4 6 7 6 3 4 4 2 4 9 8 4 4 4 3 4 7 13 22 27 28 28 31 35 34 29 27 31 36 39 40 41 43 43 42 39 36
12 13 13 14 14 15 16 17 18 19 18 17 16 17 17 17 17 15 15 16 15 8 5 9 15 18 21 23 21 18 17 17 17 18 19 19 20 21 23 23 22 19 16 15 14 11 8 5 4 4 5 5 5 6 5 4 3 1 4 10 9 5 5 4 3 2 7 11 17 18 10 10 24 38 40 35 33 36 40 45 45 44 43 41 40 39 37
11 12 13 13 14 14 15 16 17 18 19 18 18 17 17 17 14 10 11 17 16 10 11 20 27 27 24 20 16 15 17 19 19 19 19 20 21 21 21 21 20 18 14 12 11 9 6 5 5 5 5 3 4 6 5 4 2 2 7 15 19 18 14 9 7 7 12 20 28 26 15 14 28 41 44 43 43 43 44 45 44 42 41 39 38 39 40
11 12 13 13 14 14 15 15 16 17 18 18 19 18 17 15 11 7 9 18 21 19 19 23 23 18 15 16 19 22 23 21 19 18 17 18 18 18 18 18 18 17 15 12 11 10 10 11 12 12 8 4 2 3 4 2 3 7 15 25 32 33 30 26 22 17 19 32 41 35 25 25 35 44 47 46 44 42 41 42 43 43 42 40 39 38 39
12 13 14 14 14 14 14 15 15 16 17 18 19 18 15 11 9 9 14 21 23 21 19 15 11 12 18 22 22 19 16 15 16 15 14 14 15 15 15 15 15 15 15 14 13 11 11 12 13 12 12 11 7 2 2 2 3 10 21 30 34 35 35 35 33 27 28 38 43 38 35 37 41 44 46 43 39 38 40 42 42 40 38 37 36 36 35
13 14 14 14 13 13 13 13 14 15 16 17 17 15 11 9 11 16 20 21 21 20 18 13 13 17 19 16 11 11 14 18 18 16 14 12 12 12 12 13 13 13 15 15 14 12 11 12 11 7 8 11 9 3 3 3 3 13 30 35 28 24 26 29 31 30 30 33 37 37 39 40 37 36 40 41 38 36 36 36 34 33 33 32 32 32 32
12 13 13 13 13 13 12 12 13 14 15 17 16 13 11 12 16 18 20 20 20 19 15 11 10 10 9 8 9 13 16 17 16 15 15 13 11 11 11 11 12 13 13 12 10 10 12 14 15 12 10 12 9 4 2 3 8 24 43 43 28 18 20 26 32 33 28 26 27 29 34 39 37 32 33 36 34 31 31 31 31 31 31 31 30 30 30
12 13 13 13 13 13 13 13 13 14 15 16 15 13 13 14 16 18 19 20 20 18 13 8 5 4 6 9 12 13 14 14 14 15 14 13 11 10 9 9 10 10 11 11 9 8 9 9 9 10 13 14 10 2 1 11 24 36 43 42 36 32 32 36 40 38 30 23 20 20 27 35 35 30 28 29 31 31 32 34 35 36 35 35 35 35 34
13 13 14 14 14 14 14 14 15 15 15 15 14 13 14 15 17 18 20 21 19 15 10 6 3 3 7 10 9 9 12 13 12 11 10 10 11 9 7 6 5 6 10 12 11 9 8 7 6 7 8 9 8 3 6 18 26 27 27 31 38 41 40 39 37 30 21 20 22 22 22 25 26 26 28 32 34 36 37 37 38 40 41 40 39 38 38
13 13 14 15 15 15 15 15 15 14 14 14 14 15 17 18 20 21 22 22 17 9 5 5 4 3 5 6 6 8 12 13 12 11 9 9 10 10 7 4 2 4 8 9 7 6 6 6 6 5 3 4 6 6 5 10 19 24 26 33 42 42 35 31 31 28 23 22 23 19 18 20 23 27 31 35 38 39 40 40 40 41 42 42 41 39 39
12 13 15 15 15 15 15 14 12 12 13 13 16 19 20 21 21 21 21 20 15 8 6 5 3 2 2 4 6 9 12 12 11 11 9 8 8 7 5 2 3 6 7 6 5 5 6 7 5 2 2 5 5 1 9 18 27 31 34 39 42 36 27 25 28 28 22 18 17 18 20 24 28 31 33 35 37 39 41 42 43 44 44 45 45 43 41
11 13 14 14 15 14 12 10 10 12 14 16 19 21 20 19 17 16 14 13 11 9 7 4 5 7 8 6 8 10 9 8 8 7 7 6 5 4 4 3 3 5 5 4 5 5 7 8 6 3 4 8 8 13 20 26 30 33 35 36 35 30 26 23 22 18 16 19 22 25 27 29 32 34 37 38 39 40 41 42 44 44 45 46 47 47 46
11 12 13 14 13 11 9 9 12 14 16 18 19 17 14 11 10 8 7 6 5 5 4 4 8 12 11 7 7 10 9 7 8 7 4 3 4 3 4 4 4 3 2 3 4 4 4 5 4 4 7 8 10 16 21 25 27 28 28 27 24 20 16 12 12 15 19 22 25 28 28 29 31 34 35 37 38 40 41 42 43 44 44 44 45 46 46
11 12 12 11 11 10 9 12 16 18 19 18 15 10 7 6 5 4 4 5 3 2 2 4 8 10 9 8 10 13 11 8 6 5 2 3 4 3 3 3 3 2 2 4 3 4 3 3 2 3 5 5 8 13 18 20 22 20 17 15 15 12 11 12 14 17 19 20 22 24 26 27 29 31 33 35 38 41 43 44 46 47 47 46 44 43 43
11 12 12 11 11 11 12 15 17 18 16 12 7 4 3 3 2 2 3 4 2 0 1 4 7 9 9 8 9 10 10 8 7 5 4 5 6 3 1 2 2 1 2 5 3 4 3 3 2 2 4 4 8 13 15 15 16 15 12 12 13 13 14 14 15 18 21 23 25 27 27 28 30 32 35 37 40 43 46 47 48 49 49 49 48 46 44
13 13 13 14 14 15 15 14 14 12 8 4 2 2 2 2 2 2 2 2 1 1 2 4 6 7 9 9 8 9 11 12 10 7 6 6 6 3 2 3 3 1 3 4 2 1 1 2 3 5 6 3 8 15 18 18 17 13 9 10 13 14 15 15 17 21 24 26 29 31 32 33 35 36 37 40 44 47 50 52 52 51 51 51 52 52 51
13 14 15 15 16 16 14 11 7 4 2 1 2 2 2 1 2 2 0 2 2 2 2 3 4 7 11 13 11 10 12 13 10 6 4 3 4 4 3 2 2 2 4 4 3 3 1 2 5 6 4 2 10 16 16 12 7 6 10 14 16 18 20 20 21 25 28 29 31 35 37 38 39 39 41 45 49 51 51 51 51 52 52 51 52 54 55
12 13 14 14 13 11 9 6 2 1 1 1 2 1 3 2 1 1 1 2 2 1 1 4 7 8 9 12 13 12 12 12 9 5 4 4 4 3 1 1 1 2 3 4 3 1 2 5 7 6 3 5 9 7 6 9 9 10 16 20 20 21 25 26 27 32 35 35 35 39 40 41 42 44 47 50 51 51 50 50 49 49 49 50 50 51 51
11 11 11 10 7 5 4 2 2 2 0 0 1 2 0 1 1 1 1 1 1 2 3 7 8 6 7 11 13 10 8 7 5 4 5 5 3 1 0 2 3 3 4 3 1 2 5 6 6 6 4 3 2 4 7 13 18 21 24 27 28 29 33 35 36 39 42 42 42 45 48 50 52 55 55 54 52 50 51 51 50 48 48 49 50 49 48
11 10 9 6 3 1 1 0 1 1 1 2 2 3 3 3 3 3 2 3 5 4 5 9 10 9 11 13 11 7 6 5 4 4 4 3 2 2 3 3 2 2 3 3 3 5 7 5 2 3 4 1 5 5 10 19 25 27 30 34 38 39 41 43 44 47 49 50 52 55 57 57 57 57 56 54 52 50 49 50 50 50 51 52 54 52 50
9 8 6 4 1 1 1 1 0 1 2 4 4 4 5 4 4 4 6 8 8 7 9 15 17 16 15 14 9 8 9 7 5 5 3 1 2 3 3 2 2 1 2 4 6 8 9 5 2 3 4 5 11 17 22 25 28 30 33 37 41 43 45 47 49 51 53 55 57 58 57 56 54 53 53 53 53 52 51 50 50 51 52 54 56 56 53
6 4 3 1 1 2 2 3 4 3 3 4 5 6 5 8 10 10 10 11 12 13 18 22 21 18 17 14 9 9 10 7 4 4 3 2 2 3 1 1 3 3 4 7 8 7 4 2 4 7 12 18 24 29 32 32 35 38 41 43 45 46 46 48 52 55 57 58 58 58 57 55 53 53 53 54 55 55 54 53 52 51 52 54 55 55 54
3 1 1 1 2 3 4 4 6 7 8 9 10 10 11 12 12 10 10 14 16 16 18 19 18 15 13 11 9 10 9 6 4 5 5 3 2 2 1 1 4 4 4 6 7 4 4 7 11 17 25 30 32 34 37 39 41 44 45 45 46 48 51 55 58 59 59 58 58 57 57 55 54 54 54 54 55 56 56 54 53 53 54 55 55 54 53
4 3 4 4 4 6 8 8 9 12 15 16 16 16 14 13 13 14 14 14 12 12 15 18 16 11 7 7 6 6 5 4 3 2 2 3 3 2 2 4 8 7 4 3 3 5 11 19 24 29 34 36 36 39 42 44 47 49 49 50 52 55 58 59 60 59 58 58 56 56 55 55 54 54 54 53 55 56 56 56 56 56 56 55 54 53 53
8 8 9 9 7 9 10 9 8 11 13 14 15 16 15 15 15 14 10 10 14 19 22 19 14 8 6 6 4 2 4 5 4 2 4 5 4 3 4 9 10 7 3 4 8 15 23 29 33 36 40 41 43 46 49 50 52 54 55 57 58 59 59 59 59 59 58 57 55 54 54 53 53 53 53 53 54 55 56 56 57 56 56 56 54 53 52
7 9 12 15 16 15 13 10 8 10 12 13 13 13 13 14 15 14 13 17 23 24 18 12 8 6 5 4 4 4 4 4 3 4 6 6 4 4 8 11 8 5 10 17 22 27 31 34 37 40 43 46 48 50 51 51 53 55 57 58 58 57 57 58 58 57 56 56 55 54 53 52 52 52 53 53 53 54 54 55 56 56 56 56 55 53 52
8 9 11 16 20 21 20 20 22 23 23 24 23 21 21 22 22 20 20 21 21 19 16 13 9 5 3 4 6 7 6 5 4 6 8 8 7 6 7 8 8 12 19 26 31 35 38 41 42 44 46 48 50 51 51 52 54 57 58 58 57 56 56 57 57 56 55 55 54 53 53 52 52 52 52 52 52 51 51 53 55 55 55 55 55 54 53
Wind_Direction
33 31 28 24 22 21 21 24 27 32 39 43 50 59 57 60 49 18 18 37 62 80 72 25 25 70 84 85 92 105 118 114 132 159 151 183 175 104 123 127 102 173 204 148 155 179 197 206 203 224 232 241 193 175 162 160 139 109 108 170 140 129 87 25 289 288 299 304 306 290 318 67 163 251 149 140 156 138 150 178 187 216 245 165 116 251 268
32 31 29 26 23 22 20 22 23 27 39 44 48 65 64 59 49 34 31 39 67 77 97 92 51 42 80 82 69 68 82 80 99 198 222 184 161 119 135 183 128 158 162 116 149 188 183 231 238 193 212 236 232 188 182 184 163 145 173 147 128 217 187 58 334 334 342 342 345 342 341 1 220 244 197 156 121 104 122 142 102 265 233 165 151 243 263
30 29 29 27 25 22 20 22 22 24 35 39 40 59 63 55 49 40 39 52 73 77 98 126 124 133 91 73 40 40 60 49 49 69 93 115 148 119 101 149 138 130 106 81 87 165 76 284 301 19 249 243 215 184 202 205 176 181 200 163 143 190 206 136 98 15 330 316 315 313 305 278 238 210 194 192 139 131 154 129 98 246 236 163 171 240 272
29 27 28 26 25 24 21 22 22 22 29 32 31 49 60 53 42 30 35 52 68 73 76 93 110 135 118 80 19 40 69 355 7 43 41 59 104 104 109 142 120 76 81 79 315 279 354 25 22 335 252 261 241 179 206 212 184 158 162 172 146 109 225 202 176 186 208 232 249 260 332 301 277 266 241 219 181 146 125 115 169 203 189 206 227 238 272
26 25 27 25 25 24 21 22 22 20 25 25 22 43 61 62 40 0 19 43 57 62 56 60 90 129 129 108 167 146 49 323 339 355 292 313 151 56 92 154 165 158 145 120 265 268 334 27 299 222 234 262 288 206 205 208 200 169 151 180 134 86 286 245 197 218 234 237 253 271 323 265 262 264 256 230 197 158 152 189 211 168 117 270 246 214 244
21 22 25 24 25 24 21 24 23 22 25 19 19 48 59 63 61 43 47 43 39 49 39 44 74 91 96 111 135 135 36 308 240 209 282 335 226 242 352 283 233 197 173 123 162 290 350 339 249 229 246 282 343 334 218 194 193 170 151 191 144 116 258 240 185 248 258 250 262 271 256 251 256 248 249 244 201 178 196 219 209 164 196 252 254 240 259
17 19 21 22 25 24 22 24 23 26 28 15 20 56 60 67 75 60 65 81 79 59 25 26 63 71 68 88 112 148 160 216 230 196 100 351 318 139 272 282 256 201 175 112 133 248 329 308 271 223 198 260 304 318 253 184 175 167 144 213 150 133 245 228 173 286 281 263 265 258 220 253 279 254 237 231 213 202 213 229 215 198 231 253 265 278 277
15 16 18 20 23 24 24 24 22 26 27 20 39 60 62 64 69 71 84 79 52 36 17 3 45 45 37 62 143 178 170 207 238 180 162 268 289 162 217 267 253 176 163 137 199 226 189 200 247 195 163 284 235 204 225 165 143 237 121 49 95 149 260 240 116 315 292 288 308 293 211 224 272 280 263 227 223 227 226 234 226 219 246 258 265 277 277
16 16 17 18 21 24 26 27 25 24 22 29 50 60 60 59 60 75 97 70 18 19 19 19 58 36 11 39 348 265 202 218 232 192 198 215 214 197 203 209 154 106 147 201 246 252 215 212 237 207 199 245 220 211 235 157 135 108 184 128 108 151 279 353 62 344 283 289 350 323 295 260 263 283 280 227 207 222 217 215 199 193 226 260 273 272 266
17 17 18 17 19 22 25 28 30 28 25 34 50 54 51 52 54 66 98 84 9 21 26 29 56 48 303 273 237 285 285 253 214 240 255 237 230 238 209 177 150 119 243 240 253 268 249 245 260 252 241 247 244 254 261 190 160 162 164 154 115 141 142 359 34 315 272 282 325 314 318 345 313 270 240 191 202 232 245 246 217 199 203 245 259 254 261
19 19 19 19 20 21 23 27 31 32 31 38 48 50 46 44 40 40 72 95 14 3 13 44 62 174 222 224 218 225 247 225 184 192 273 263 247 246 215 185 172 230 230 241 278 289 279 273 273 266 261 265 260 252 249 231 205 187 166 153 151 122 117 196 196 228 272 291 320 337 358 356 282 235 179 180 222 229 232 252 241 212 199 223 250 266 281
22 20 19 20 21 22 23 25 28 32 38 40 42 45 45 42 39 32 39 85 31 353 20 93 128 204 214 216 210 208 210 204 199 207 244 265 265 247 219 194 191 245 239 258 302 301 288 281 276 268 264 269 240 218 224 221 208 218 194 160 143 129 131 212 195 195 268 306 358 4 326 236 259 266 214 218 228 206 216 261 264 241 225 241 261 271 274
24 22 21 19 20 20 21 25 26 28 35 38 37 42 42 39 41 39 43 80 85 346 19 228 257 251 231 224 212 215 216 202 211 225 236 248 247 237 224 209 215 244 253 266 293 307 298 290 298 296 27 61 61 69 52 42 45 23 196 150 146 148 158 206 189 194 275 355 28 330 270 277 292 308 304 209 184 162 222 283 277 254 226 230 250 260 265
22 22 22 20 19 19 17 20 22 22 25 28 30 38 38 34 39 43 45 61 136 303 25 322 297 282 251 235 213 212 217 208 224 235 236 245 247 235 227 225 234 247 252 264 288 311 315 355 18 353 337 5 10 2 40 38 34 38 21 320 176 149 145 198 252 217 211 345 257 264 306 314 311 311 182 157 153 181 175 268 282 269 235 223 238 259 268
16 17 19 19 19 18 16 14 14 13 14 17 21 26 25 24 32 36 35 51 93 178 156 317 310 294 261 239 213 219 263 245 233 242 243 243 245 244 235 229 234 239 234 246 272 77 55 18 25 350 334 340 323 308 320 48 1 18 11 338 164 140 148 187 214 253 114 100 301 317 347 315 277 258 253 212 173 181 142 134 287 284 263 243 234 245 265
8 10 12 14 15 16 16 13 10 7 4 5 7 7 8 13 19 19 18 31 55 14 262 279 321 302 257 228 224 245 276 261 232 302 296 261 237 231 229 222 220 214 209 225 139 87 70 110 158 179 254 222 220 278 284 279 301 333 7 43 88 79 59 118 146 278 4 112 214 250 245 261 258 255 253 180 163 165 111 56 290 271 256 252 235 238 261
357 359 3 7 8 10 12 11 9 6 360 356 354 351 354 357 356 359 3 358 347 300 262 280 306 275 215 185 228 246 247 234 220 283 302 288 249 228 220 208 196 179 158 206 60 78 89 145 146 182 248 223 167 262 277 226 266 283 322 52 67 57 29 73 169 242 224 148 186 237 242 252 258 265 263 195 164 142 76 347 282 250 250 288 268 260 273
353 353 353 357 358 0 4 5 5 4 359 356 351 344 343 344 343 345 346 340 330 299 280 301 296 275 256 251 255 246 230 215 214 231 267 289 274 236 208 193 176 166 238 282 52 81 125 192 179 185 248 265 144 214 251 182 229 247 188 129 95 85 20 169 173 210 201 181 222 271 260 250 259 271 243 165 147 109 68 264 269 280 312 318 305 289 290
356 353 351 352 351 351 354 355 357 358 356 354 352 346 339 336 334 333 331 328 316 293 296 301 293 282 278 273 268 258 241 231 227 201 105 310 267 192 165 197 188 178 153 119 116 120 144 258 246 154 214 284 249 181 222 208 209 194 147 148 266 210 151 151 160 190 189 176 198 277 284 264 228 170 149 150 143 183 234 251 285 301 309 312 307 299 299
353 351 349 348 347 347 346 346 347 348 348 349 349 349 345 337 330 326 323 320 309 299 297 296 288 279 277 279 279 271 260 251 239 213 196 236 213 157 107 287 209 175 116 112 226 214 169 240 263 146 191 254 227 168 249 259 252 205 178 210 227 187 178 231 212 183 155 123 151 279 290 249 173 146 134 155 182 256 272 284 298 301 303 307 303 301 303
348 346 346 345 344 343 341 341 341 341 341 343 344 345 343 337 332 327 319 315 310 303 298 294 291 286 282 284 286 280 271 264 257 249 250 248 209 171 145 253 192 182 179 164 176 230 200 203 238 225 218 233 214 211 224 288 300 275 196 191 222 187 183 220 237 191 152 153 187 210 253 217 168 172 248 246 245 270 283 291 296 297 301 304 300 301 306
350 348 347 344 342 340 338 338 338 337 337 337 338 338 336 331 330 327 321 315 305 292 287 290 290 287 284 285 285 281 273 266 263 261 264 259 227 215 235 241 197 200 213 183 166 243 218 185 175 202 210 219 235 227 188 203 290 290 206 157 221 215 197 188 237 219 194 212 231 245 268 269 239 243 265 271 275 283 287 288 289 293 300 304 301 302 307
356 353 352 348 344 342 339 338 336 334 333 332 332 332 332 330 329 326 324 321 310 297 290 287 284 283 286 289 288 283 277 271 266 259 256 258 251 242 246 249 243 240 229 212 216 221 178 182 188 181 208 215 197 208 242 232 247 254 203 203 237 231 211 171 210 241 255 267 258 253 264 271 269 267 272 277 284 291 294 293 292 296 303 306 303 303 305
359 356 353 349 347 344 341 340 337 333 331 331 331 333 335 334 331 328 327 325 321 313 301 288 284 285 290 297 299 294 289 284 277 267 255 250 254 259 262 261 256 252 245 238 240 234 197 190 170 152 223 214 173 175 255 243 228 202 188 231 278 254 213 195 233 257 300 274 257 244 252 264 272 279 282 284 290 295 298 298 298 302 306 307 305 304 303
357 355 352 349 349 347 343 341 339 336 333 331 331 333 334 334 335 335 335 333 330 321 297 283 290 291 290 299 307 307 306 302 294 284 269 256 253 256 264 275 276 269 269 267 256 240 229 225 169 166 233 219 193 198 236 232 226 194 175 222 275 258 171 191 230 222 218 258 270 271 271 274 281 284 284 287 297 304 305 305 305 306 306 306 305 304 302
358 355 352 350 349 348 345 342 339 336 334 333 335 337 338 340 342 341 342 342 333 318 288 281 295 297 296 305 309 304 302 301 296 291 283 270 262 259 260 267 273 274 278 280 267 250 246 246 202 187 221 211 204 215 231 232 228 188 204 230 230 194 181 199 212 242 259 270 277 279 280 284 292 296 297 300 307 310 310 310 310 309 308 309 309 307 306
355 354 354 352 350 347 345 341 335 332 333 334 334 336 337 341 343 342 349 356 349 327 292 297 306 308 308 307 305 302 301 301 299 296 289 278 273 270 265 263 266 271 279 281 270 258 257 265 254 232 234 237 238 246 259 259 241 213 249 239 221 210 230 202 150 283 275 263 269 278 285 291 296 303 309 311 311 311 310 310 312 313 313 313 313 311 309
342 346 350 352 352 349 346 342 335 332 333 334 335 335 336 338 338 335 350 1 358 342 314 308 308 310 311 308 308 312 314 311 307 303 298 290 282 276 269 264 262 264 267 271 271 264 252 253 263 256 247 251 261 267 279 286 259 244 247 234 224 222 224 206 186 220 250 265 277 286 290 284 291 301 307 309 311 313 311 312 315 316 316 316 314 311 310
329 333 338 342 348 350 350 348 341 335 334 333 333 335 336 337 337 327 337 348 348 340 330 322 318 318 317 312 312 314 315 317 315 310 305 299 291 284 277 268 260 258 255 254 257 259 257 258 260 259 256 247 246 273 288 281 243 249 248 242 239 239 239 236 234 237 257 276 285 292 295 293 297 302 305 309 315 318 316 317 319 319 319 319 316 312 312
317 323 326 328 334 341 347 350 347 341 338 335 332 335 340 343 341 328 327 333 337 337 335 326 312 309 312 311 312 316 326 337 339 335 326 311 298 293 287 274 263 258 251 244 243 253 265 266 259 253 246 237 233 264 295 248 248 263 258 252 251 252 252 251 253 256 267 279 288 293 293 294 299 304 308 314 323 324 321 321 322 323 324 323 320 319 319
315 319 322 323 325 330 339 346 345 343 342 339 338 340 340 332 326 325 324 325 327 332 331 315 296 302 310 311 317 334 344 345 342 340 337 328 313 301 291 278 266 255 245 242 245 251 256 252 248 247 240 232 224 213 232 234 278 276 269 264 260 260 266 272 275 274 275 285 295 297 296 300 306 312 317 325 332 332 328 328 330 331 330 327 326 326 325
319 319 321 322 323 324 329 335 339 339 338 338 338 337 328 320 322 327 328 326 327 330 329 315 304 307 311 314 324 331 337 343 343 337 333 330 320 309 297 282 266 254 248 246 246 251 253 248 245 252 252 238 228 218 224 227 246 260 267 274 283 289 291 293 293 291 292 298 301 300 303 311 319 323 326 333 343 348 348 347 347 346 342 339 338 337 334
321 321 321 320 320 321 320 323 329 330 327 327 326 325 324 324 326 327 328 328 328 328 320 304 291 292 298 307 316 323 330 337 334 326 324 323 318 310 298 282 268 252 241 235 230 241 255 244 237 253 253 235 221 193 226 240 246 257 271 285 296 298 296 293 292 295 301 308 308 303 304 314 325 336 343 350 359 2 1 360 358 357 355 352 349 347 345
321 322 321 320 320 318 314 312 315 318 318 318 316 317 323 326 326 326 326 326 327 326 315 290 266 285 305 308 310 319 328 330 324 317 316 316 311 303 286 276 271 240 232 235 234 242 255 249 241 259 249 211 195 205 250 255 266 283 301 305 302 300 300 298 299 304 315 325 324 322 322 327 339 352 359 3 7 8 7 7 3 359 357 355 351 347 343
321 322 322 322 321 318 316 314 314 313 311 310 310 314 318 320 320 320 320 320 322 320 305 294 289 292 309 314 311 315 319 317 309 303 300 298 296 289 275 267 268 243 239 239 236 240 251 243 238 247 221 174 201 228 258 305 323 332 327 312 305 304 303 304 309 316 326 332 335 345 358 358 357 359 1 4 7 7 8 9 6 2 360 358 353 348 344
321 322 324 324 323 322 321 320 318 316 316 316 317 318 316 314 315 315 313 313 309 289 275 295 303 275 287 304 304 309 316 317 310 297 286 285 290 280 258 239 262 257 245 232 234 251 241 219 219 247 201 191 209 313 3 345 330 321 312 306 304 303 301 305 311 317 330 352 8 16 15 8 3 2 2 2 3 4 3 4 4 1 358 356 354 352 349
324 324 325 326 326 328 329 326 323 322 322 320 320 319 316 315 317 317 315 314 303 279 267 276 278 271 274 284 299 305 309 321 325 303 276 280 294 266 223 216 258 266 258 239 240 245 226 210 212 247 240 236 272 319 327 319 310 306 305 305 305 307 311 316 321 333 360 20 21 15 10 7 5 3 360 358 359 359 358 358 359 357 355 352 350 348 347
329 328 330 331 334 340 340 327 321 320 319 319 320 320 318 320 325 331 338 342 323 286 258 249 267 276 272 266 290 302 300 310 328 319 279 286 311 267 220 232 250 251 277 275 242 215 205 204 207 238 256 274 305 314 311 309 306 303 305 311 319 329 340 353 15 26 23 17 11 7 4 1 359 358 357 355 354 354 353 353 353 353 352 350 347 344 341
334 334 337 339 342 341 328 316 314 315 315 317 317 314 311 322 337 358 9 5 351 315 259 248 271 287 283 268 285 302 306 303 309 312 298 304 298 256 216 258 257 228 297 298 234 175 201 259 258 249 266 300 327 318 313 316 313 310 320 343 1 21 43 46 37 27 18 10 6 2 357 354 352 352 351 350 349 350 351 349 347 346 346 345 344 342 337
339 343 343 341 335 325 315 310 312 314 315 317 316 309 325 348 8 42 24 6 354 227 229 275 294 308 306 286 285 305 315 306 290 288 293 286 273 259 292 304 264 199 292 280 224 168 197 265 278 248 245 274 316 320 324 333 335 337 358 24 37 46 47 33 19 12 6 2 359 356 354 353 350 348 348 348 346 346 347 345 343 341 340 339 339 339 337
348 350 346 338 331 325 320 318 316 314 313 319 327 330 346 355 338 344 37 45 355 284 285 298 305 317 323 312 293 293 306 306 296 284 282 275 260 248 271 284 272 254 267 267 254 133 148 271 282 258 236 256 335 333 329 330 331 338 4 30 33 27 17 7 3 1 356 353 352 351 350 348 347 346 346 345 344 344 343 341 339 338 336 336 335 333 333
345 341 336 333 332 332 330 328 323 308 306 13 28 359 343 322 314 317 176 177 241 297 319 310 304 316 327 326 312 297 302 308 301 284 277 280 260 236 236 284 303 255 245 270 323 16 55 259 270 256 231 301 328 323 322 329 346 24 31 19 11 5 359 354 352 350 348 346 346 345 345 344 343 342 342 341 342 341 339 336 335 334 333 332 329 326 327
334 332 333 336 341 343 340 329 293 243 322 53 89 13 325 309 287 281 253 233 238 259 340 338 333 332 335 333 326 312 302 299 294 279 269 275 276 271 278 290 256 245 277 306 334 351 233 250 254 250 274 336 328 331 21 44 40 23 9 4 2 359 354 349 344 342 343 343 341 340 340 339 337 337 338 339 338 336 333 331 331 330 327 324 321 319 321
328 332 336 338 345 360 356 328 175 152 7 309 159 143 68 321 278 250 218 245 279 307 343 347 345 335 327 329 326 311 291 288 289 277 270 274 282 325 256 245 249 284 315 314 268 232 252 250 245 254 287 335 42 88 53 22 5 355 352 352 351 349 347 345 342 341 340 339 337 337 336 335 334 334 333 333 332 330 328 326 325 323 322 321 319 317 317
335 347 355 354 357 27 21 265 160 161 225 230 195 167 181 210 226 216 221 291 307 312 332 343 341 324 315 321 319 286 263 280 281 254 250 275 289 245 234 247 272 317 307 267 244 262 266 262 276 301 289 62 80 39 354 352 353 350 344 341 340 340 340 340 339 337 336 335 334 333 332 331 330 329 327 325 324 324 323 322 321 321 321 321 320 318 317
346 6 23 23 347 254 156 139 141 245 217 203 198 196 199 218 254 283 298 309 314 310 313 324 328 318 307 309 305 270 262 271 263 238 231 253 260 244 236 250 280 299 278 252 249 258 264 270 42 18 324 348 4 351 340 340 343 341 339 338 338 337 337 336 334 333 333 331 330 329 327 326 325 323 322 321 321 320 320 320 320 320 319 318 317 318 318
352 23 53 55 285 256 223 219 236 248 237 216 218 229 257 287 297 300 301 305 312 314 315 318 320 311 300 297 288 265 256 250 237 237 237 232 253 263 280 285 254 233 233 247 251 260 284 344 44 16 348 340 339 336 335 336 336 335 335 335 334 333 334 332 330 329 328 327 325 323 321 320 320 320 319 319 318 318 318 318 317 316 315 314 315 317 318
329 38 138 220 247 226 220 235 251 252 246 244 251 268 287 295 295 298 307 310 313 321 327 327 323 313 299 285 269 258 254 245 237 238 223 200 254 282 284 259 251 234 230 249 256 275 338 340 337 338 337 334 332 331 331 332 332 331 332 331 330 330 330 328 325 323 322 320 319 318 317 317 318 317 317 316 315 316 316 316 315 314 313 313 314 316 317
271 227 211 224 246 245 243 256 273 270 259 254 258 266 274 279 283 292 302 306 309 325 336 333 326 315 292 274 269 263 242 216 207 225 217 215 236 228 191 241 257 255 247 250 271 322 336 334 332 331 330 328 328 329 328 327 327 327 326 325 325 325 323 320 318 317 315 315 315 314 315 315 315 315 314 314 313 314 314 314 314 313 314 314 315 315 316
254 240 226 220 234 253 257 261 274 275 266 257 256 258 262 270 279 284 285 290 303 315 322 320 312 296 280 279 285 269 224 208 199 217 242 237 224 201 223 242 247 250 277 317 325 331 333 331 328 326 324 322 321 321 321 320 320 320 318 318 317 317 315 313 312 311 312 313 313 313 313 313 313 313 313 312 312 312 312 313 313 315 316 317 317 316 316
238 242 236 230 233 244 251 253 260 271 269 262 261 265 270 272 273 274 278 290 300 308 312 306 288 280 279 267 253 255 261 243 210 222 246 244 210 193 229 241 249 306 330 322 320 321 321 319 317 317 316 315 313 313 314 314 314 313 311 311 311 310 309 309 309 309 310 311 312 311 311 312 312 312 312 312 311 310 310 312 314 317 317 317 317 317 317
223 238 249 248 244 245 250 255 260 266 270 271 272 275 276 275 276 282 287 288 287 283 277 272 268 260 250 252 257 265 272 262 236 236 245 241 223 217 242 268 302 324 322 317 314 311 309 308 309 309 309 308 308 309 309 309 308 307 307 307 307 308 308 308 308 308 309 309 310 310 310 310 311 311 311 310 310 309 309 311 314 317 317 316 317 318 318